Regional Weather Roundup
Issued by NWS

Home | Current Version | Previous Version | Text Only | Print | Product List | Glossary Off
Versions: 1 2 3 4 5 6 7 8 9 10 11 12 13 14 15 16 17 18 19 20 21 22 23 24 25 26 27 28 29 30 31 32 33 34 35 36 37 38 39 40 41 42 43 44 45 46 47 48 49 50

000
ASUS43 KDTX 181110
RWRMI
MICHIGAN HOURLY REGIONAL WEATHER ROUNDUP
NATIONAL WEATHER SERVICE DETROIT/PONTIAC MI
600 AM EST SUN FEB 18 2018

NOTE: "FAIR" INDICATES FEW OR NO CLOUDS BELOW 12,000 FEET WITH NO
SIGNIFICANT WEATHER AND/OR OBSTRUCTION TO VISIBILITY.

MIZ047>049-052>055-059>063-066>070-074>076-081>083-181200-
SOUTHEAST LOWER MICHIGAN

CITY           SKY/WX    TMP DP  RH WIND       PRES   REMARKS
ADRIAN         CLOUDY    30  23  75 W3        30.27R
ALMA           CLOUDY    29  25  82 SW7       30.22R WCI  22
ANN ARBOR      CLOUDY    31  23  72 W9        30.25R WCI  23
BAD AXE        CLOUDY    29  23  77 W7        30.19R WCI  22
CARO           CLOUDY    30  22  73 SW6       30.21R WCI  24
DETROIT CITY   CLOUDY    32  23  69 W10       30.26R WCI  24
DETROIT        CLOUDY    31  26  82 SW6       30.27R WCI  25
FLINT          CLOUDY    29  22  75 W13       30.24R WCI  19
GROSSE ILE     CLOUDY    31  27  85 W5        30.26R WCI  26
HILLSDALE      CLOUDY    30  23  74 W9        30.24R WCI  22
HOWELL         CLOUDY    30  23  76 NW10G20   30.24R WCI  21

CITY           SKY/WX    TMP DP  RH WIND       PRES   REMARKS
JACKSON        CLOUDY    30  24  78 W3        30.24R
LAMBERTVILLE   CLOUDY    31  26  81 W7        30.27R WCI  24
LANSING        CLOUDY    28  23  81 W7        30.24R WCI  21
LAPEER         CLOUDY    30  25  79 W5        30.22R WCI  25
MASON          MOCLDY    30  20  66 W8        30.23S WCI  23
MONROE         CLOUDY    30  28  90 CALM      30.27R
MT. CLEMENS    CLOUDY    31  29  91 W5        30.23R WCI  26
PONTIAC        CLOUDY    30  23  75 W14       30.22R WCI  19
PORT HOPE        N/A     30  22  72 SW5       30.16R WCI  25
PORT HURON     CLOUDY    30  23  74 W3        30.24R
TRI CITIES     CLOUDY    30  22  72 SW8       30.22R WCI  22
MIDLAND        CLOUDY    31  23  71 SW6       30.21R WCI  25
TROY           CLOUDY    32  26  77 W7        30.27R WCI  26
SAGINAW HB     CLOUDY    30  23  74 W8        30.22R WCI  23
$$
MIZ043>046-050>051-056>058-064>065-071>073-077>080-181200-
SOUTHWEST LOWER MICHIGAN

CITY           SKY/WX    TMP DP  RH WIND       PRES   REMARKS
BATTLE CREEK   CLOUDY    28  23  81 W7        30.25R WCI  21
BENTON HARBOR  CLOUDY    28  23  81 SW6       30.26R WCI  22
BIG RAPIDS     CLOUDY    27  22  80 W6        30.16F WCI  21
COLDWATER      CLOUDY    28  23  82 W5        30.26R WCI  22
FREMONT        FAIR      24  19  81 S3        30.19S
HOLLAND        CLOUDY    31  26  82 SW7       30.23R WCI  24
GRAND RAPIDS   CLOUDY    30  25  81 SW8       30.22R WCI  22
IONIA          CLOUDY    29  25  83 SW8       30.21S WCI  21
KALAMAZOO      MOCLDY    25  23  92 SW5       30.25R WCI  19
LUDINGTON      FAIR      28  23  81 NW3       30.17S
MARSHALL       CLOUDY    29  22  75 W7        30.25R WCI  22
MOUNT PLEASANT CLOUDY    31  22  70 SW7       30.20R WCI  24
MUSKEGON       FAIR      29  22  75 W7        30.21R WCI  22
SOUTH HAVEN    CLOUDY    31  26  81 SW6       30.24S WCI  26
$$
MIZ016>042-181200-
NORTHERN LOWER MICHIGAN

CITY           SKY/WX    TMP DP  RH WIND       PRES   REMARKS
ALPENA         FAIR      27  20  75 W6        30.12R WCI  20
BEAVER ISLAND  FAIR      22  14  71 W6        30.13R WCI  15
BELLAIRE       CLOUDY    27  25  92 CALM      30.15R
CADILLAC       CLOUDY    27  21  80 W8        30.13R WCI  18
CHARLEVOIX     FAIR      26  16  68 W6        30.17R WCI  19
FRANKFORT      CLOUDY    30  23  75 W7        30.16R WCI  23
GAYLORD        CLOUDY    25  23  92 W7        30.10R WCI  17
GRAYLING       CLOUDY    26  22  85 SW7       30.12R WCI  18
HARBOR SPRINGS FAIR      20  19  95 SW5       30.13R WCI  13
HOUGHTON LAKE  CLOUDY    26  19  74 W6        30.15R WCI  19
MANISTEE       FAIR      26  21  81 W8        30.17R WCI  18
OSCODA         CLOUDY    25  20  79 SW8       30.17R WCI  17
PELLSTON       FAIR      22  16  78 W5        30.12R WCI  16
ROGERS CITY    FAIR      25  18  76 W3        30.11R
TRAVERSE CITY  CLOUDY    30  22  72 W6        30.15R WCI  24
$$
MIZ007>008-015-181200-
EASTERN UPPER MICHIGAN

CITY           SKY/WX    TMP DP  RH WIND       PRES   REMARKS
KINROSS        FAIR      18  14  84 W6        30.07R WCI  10
MACKINAC ISLAN FAIR      21  14  74 W7        30.08S WCI  13
NEWBERRY       FAIR      14  13  94 SW6       30.06S WCI   5
S. S. MARIE    MOCLDY    22  18  85 W6        30.07R WCI  14
MUNISING         N/A     20  10  65 W7        30.10R WCI  11
$$
MIZ004>006-011>014-085-181200-
CENTRAL UPPER MICHIGAN

CITY           SKY/WX    TMP DP  RH WIND       PRES   REMARKS
MANISTIQUE     FAIR      14  11  85 W5        30.11R WCI   7
ESCANABA       FAIR       6   3  87 CALM      30.16R
MENOMINEE      FAIR      16  13  88 CALM      30.17R
SAWYER-GWINN   FAIR       6   2  84 SW3       30.09R
$$
MIZ001>003-009>011-084-181200-
WESTERN UPPER MICHIGAN

CITY           SKY/WX    TMP DP  RH WIND       PRES   REMARKS
IRON MOUNTAIN  FAIR       6   2  83 CALM      30.10R
HOUGHTON       CLOUDY    17   6  62 W5        30.03R WCI  10
COPPER HARBOR    N/A     18   7  62 N8        30.07R WCI   8
IRONWOOD       FAIR      12   4  70 S6        30.08R WCI   3
$$

ABBREVIATIONS USED IN REMARKS
   TC - TEMPERATURE IN CELSIUS
  WCI - WIND CHILL INDEX
   HX - HEAT INDEX
  VSB - VISIBILITY





USA.gov is the U.S. government's official web portal to all federal, state and local government web resources and services.